{"data":{"norad_id":47790,"intl_designator":"2021-018D","name":"STARLINK-2319","alt_names":[],"object_type":"PAYLOAD","status":"ACTIVE","operator":null,"country":"US","launch_date":"2021-03-11","launch_site_code":"AFETR","launch_vehicle":null,"mission":null,"orbit_class":"UNKNOWN","rcs_meters":null,"size_class":null,"mass_kg":null,"dimensions":null,"purposes":["comms"],"wikipedia_slug":null,"has_3d_model":false,"image_url":null,"decayed_at":null,"tle_current":{"epoch":"2026-09-19T23:35:34.296576Z","epoch_age_seconds":70460,"freshness":"FRESH","line1":"1 47790U 21018D   26262.98303584  .00000398  00000+0  24600-4 0  9992","line2":"2 47790  53.1578  32.4804 0001127  70.8893 289.2230 15.31703878306878","mean_motion":15.31703878,"eccentricity":0.0001127,"inclination_deg":53.1578,"raan_deg":32.4804,"arg_perigee_deg":70.8893,"mean_anomaly_deg":289.223,"bstar":2.46e-5,"rev_number":30687,"period_min":94.012949936528,"perigee_km":469.95656799929,"apogee_km":471.50030226837,"semimajor_km":6848.8654351338,"source":"CELESTRAK","updated_at":"2026-09-20T09:00:38.604899Z"}}}